GW3733 Weather Reports


time (UTC)temp
C
wind
direction
speed
KPH
gust
KPH
rain 1hr
cm
rain 24hr
cm
rain mn
cm
humidity
%
barometer
mb
20260902060754 21 324 0.0 0.0 0.00 0.00 0.00 98 1015.0
20260902060249 20 324 0.0 0.0 0.00 0.00 0.00 98 1015.1
20260902055744 20 324 0.0 0.0 0.00 0.00 0.00 98 1015.2
20260902055240 20 324 0.0 0.0 0.00 0.00 0.00 98 1015.2
20260902054735 20 324 0.0 0.0 0.00 0.00 0.00 98 1015.2
20260902054230 20 324 0.0 0.0 0.00 0.00 0.00 98 1015.1
20260902053725 20 324 0.0 0.0 0.00 0.00 0.00 98 1015.0
20260902053220 20 324 0.0 0.0 0.00 0.00 0.00 99 1015.2
20260902052719 20 324 0.0 0.0 0.00 0.00 0.00 99 1015.2
20260902052215 20 324 0.0 0.0 0.00 0.00 0.00 99 1015.1
20260902051714 20 324 0.0 0.0 0.00 0.00 0.00 99 1015.1
20260902051209 20 324 0.0 0.0 0.00 0.00 0.00 99 1014.9
20260902050704 20 324 0.0 0.0 0.00 0.00 0.00 99 1014.9
20260902050159 20 324 0.0 0.0 0.00 0.00 0.00 99 1014.9
20260902045653 20 324 0.0 0.0 0.00 0.00 0.00 99 1015.0
20260902045149 20 324 0.0 0.0 0.00 0.00 0.00 99 1015.0
20260902044643 20 324 0.0 0.0 0.00 0.00 0.00 99 1015.0
20260902044140 20 324 0.0 0.0 0.00 0.00 0.00 99 1014.8
20260902043635 20 324 0.0 0.0 0.00 0.00 0.00 98 1014.6
20260902043131 20 324 0.0 0.0 0.00 0.00 0.00 98 1014.5
20260902042630 20 324 0.0 0.0 0.00 0.00 0.00 98 1014.5
20260902042125 20 324 0.0 0.0 0.00 0.00 0.00 98 1014.4
20260902041625 20 324 0.0 0.0 0.00 0.00 0.00 98 1014.2
20260902041120 21 324 0.0 0.0 0.00 0.00 0.00 97 1014.2
20260902040619 21 324 0.0 0.0 0.00 0.00 0.00 97 1014.1
20260902040114 21 324 0.0 0.0 0.00 0.00 0.00 97 1014.0
20260902035613 21 324 0.0 0.0 0.00 0.00 0.00 97 1014.0
20260902035108 21 324 0.0 0.0 0.00 0.00 0.00 97 1013.7
20260902034607 21 324 0.0 0.0 0.00 0.00 0.00 96 1013.7
20260902034101 21 324 0.0 0.0 0.00 0.00 0.00 96 1013.9
20260902033601 21 324 0.0 0.0 0.00 0.00 0.00 96 1013.6
20260902033055 21 324 0.0 0.0 0.00 0.00 0.00 95 1013.9
20260902032554 21 324 1.6 1.6 0.00 0.00 0.00 95 1013.9
20260902032049 21 324 0.0 0.0 0.00 0.00 0.00 94 1013.6
20260902031544 21 324 0.0 0.0 0.00 0.00 0.00 94 1013.4
20260902031040 22 324 0.0 0.0 0.00 0.00 0.00 93 1013.5
20260902030539 22 324 0.0 0.0 0.00 0.00 0.00 93 1013.5
20260902030039 22 324 0.0 0.0 0.00 0.00 0.00 92 1013.3
20260902025534 22 324 0.0 0.0 0.00 0.00 0.00 91 1013.2
20260902025030 22 324 0.0 0.0 0.00 0.00 0.00 91 1013.3
20260902024525 22 324 0.0 0.0 0.00 0.00 0.00 91 1013.4
20260902024019 22 324 0.0 0.0 0.00 0.00 0.00 90 1013.3
20260902023510 23 325 0.0 0.0 0.00 0.00 0.00 89 1013.3
20260902023009 23 329 0.0 0.0 0.00 0.00 0.00 89 1013.3
20260902022504 23 333 0.0 0.0 0.00 0.00 0.00 88 1013.4
20260902022000 23 344 0.0 0.0 0.00 0.00 0.00 87 1013.5
20260902021455 24 344 0.0 0.0 0.00 0.00 0.00 86 1013.6
20260902020950 24 344 0.0 0.0 0.00 0.00 0.00 85 1013.9
20260902020446 25 343 0.0 0.0 0.00 0.00 0.00 84 1013.9
20260902015942 25 343 0.0 0.0 0.00 0.00 0.00 83 1013.6
20260902015437 25 321 1.6 3.2 0.00 0.00 0.00 79 1014.0
20260902014932 26 7 1.6 1.6 0.00 0.00 0.00 76 1014.1
20260902014429 25 23 0.0 1.6 0.00 0.00 0.00 77 1014.0
20260902013928 25 14 0.0 0.0 0.00 0.00 0.00 78 1013.5
20260902013424 25 357 0.0 0.0 0.00 0.00 0.00 77 1013.7
20260902012919 26 320 0.0 1.6 0.00 0.00 0.00 76 1013.6
20260902012414 25 3 0.0 0.0 0.00 0.00 0.00 78 1013.2
20260902011910 25 348 0.0 0.0 0.00 0.00 0.00 81 1013.5
20260902011405 25 344 0.0 0.0 0.00 0.00 0.00 81 1013.5
20260902010905 25 345 0.0 0.0 0.00 0.00 0.00 83 1013.3
20260902010359 25 345 0.0 0.0 0.00 0.00 0.00 81 1013.3
20260902005858 25 345 0.0 0.0 0.00 0.00 0.00 80 1013.1
20260902005352 25 345 0.0 0.0 0.00 0.00 0.00 79 1013.0
20260902004848 25 345 0.0 0.0 0.00 0.00 0.00 80 1012.9
20260902004343 26 351 0.0 0.0 0.00 0.00 0.00 78 1013.0
20260902003838 26 351 0.0 0.0 0.00 0.00 0.00 74 1013.3
20260902003333 27 354 0.0 0.0 0.00 0.00 0.00 75 1013.2
20260902002829 27 348 1.6 1.6 0.00 0.00 0.00 72 1013.2
20260902002328 27 330 0.0 1.6 0.00 0.00 0.00 74 1012.9
20260902001823 27 349 3.2 3.2 0.00 0.00 0.00 72 1013.0
20260902001318 27 343 1.6 1.6 0.00 0.00 0.00 72 1012.7
20260902000818 27 352 1.6 1.6 0.00 0.00 0.00 72 1012.9
20260902000313 27 343 3.2 3.2 0.00 0.00 0.00 70 1012.7
20260901235808 27 345 3.2 3.2 0.00 0.00 0.00 71 1012.6
20260901235307 27 350 1.6 1.6 0.00 0.00 0.00 70 1012.7
20260901234803 27 345 0.0 0.0 0.00 0.00 0.00 72 1012.8
20260901234257 27 5 0.0 0.0 0.00 0.00 0.00 75 1012.6
20260901233757 26 344 1.6 3.2 0.00 0.00 0.00 77 1012.6
20260901233253 27 270 3.2 3.2 0.00 0.00 0.00 78 1012.7
20260901232748 27 9 0.0 0.0 0.00 0.00 0.00 77 1012.7
20260901232238 27 346 0.0 0.0 0.00 0.00 0.00 75 1012.6
20260901231734 28 351 1.6 1.6 0.00 0.00 0.00 73 1012.6
20260901231230 28 354 3.2 3.2 0.00 0.00 0.00 72 1012.4
20260901230725 28 333 1.6 1.6 0.00 0.00 0.00 74 1012.5
20260901230219 28 355 1.6 1.6 0.00 0.00 0.00 76 1012.6
20260901225715 28 347 0.0 0.0 0.00 0.00 0.00 77 1012.6
20260901225209 28 346 1.6 1.6 0.00 0.00 0.00 77 1012.8
20260901224705 27 346 1.6 1.6 0.00 0.00 0.00 80 1012.7
20260901224201 28 346 0.0 0.0 0.00 0.00 0.00 80 1012.8
20260901223656 28 346 0.0 0.0 0.00 0.00 0.00 78 1012.4
20260901223151 28 358 0.0 0.0 0.00 0.00 0.00 77 1012.6
20260901222648 28 350 0.0 0.0 0.00 0.00 0.00 76 1012.8
20260901222144 29 350 0.0 0.0 0.00 0.00 0.00 76 1012.6
20260901221639 28 347 0.0 0.0 0.00 0.00 0.00 75 1012.7
20260901221135 29 38 1.6 3.2 0.00 0.00 0.00 73 1012.7
20260901220634 29 355 0.0 0.0 0.00 0.00 0.00 73 1013.0
20260901220134 29 8 3.2 4.8 0.00 0.00 0.00 73 1012.6
20260901215632 29 17 0.0 0.0 0.00 0.00 0.00 77 1012.7
20260901215126 29 1 0.0 0.0 0.00 0.00 0.00 73 1012.7
20260901214624 29 24 3.2 4.8 0.00 0.00 0.00 71 1012.7
20260901214118 30 346 0.0 0.0 0.00 0.00 0.00 73 1012.5
20260901213613 30 298 4.8 6.4 0.00 0.00 0.00 69 1012.6
20260901213107 30 326 1.6 1.6 0.00 0.00 0.00 71 1012.5
20260901212602 30 355 0.0 0.0 0.00 0.00 0.00 72 1012.6
20260901212058 30 346 0.0 0.0 0.00 0.00 0.00 69 1012.6
20260901211553 31 349 3.2 4.8 0.00 0.00 0.00 67 1012.8
20260901211049 31 10 1.6 1.6 0.00 0.00 0.00 66 1012.6
20260901210544 31 338 1.6 1.6 0.00 0.00 0.00 68 1012.5
20260901210041 30 334 4.8 4.8 0.00 0.00 0.00 68 1012.5
20260901205535 30 340 0.0 0.0 0.00 0.00 0.00 69 1012.5
20260901205030 30 357 0.0 0.0 0.00 0.00 0.00 70 1012.6
20260901204526 30 348 0.0 0.0 0.00 0.00 0.00 72 1012.5
20260901204021 30 343 0.0 0.0 0.00 0.00 0.00 68 1012.7
20260901203521 30 293 0.0 0.0 0.00 0.00 0.00 68 1012.7
20260901203016 30 341 0.0 0.0 0.00 0.00 0.00 69 1012.9
20260901202510 30 337 0.0 0.0 0.00 0.00 0.00 70 1012.6
20260901202006 30 346 0.0 0.0 0.00 0.00 0.00 72 1012.8
20260901201501 30 351 0.0 0.0 0.00 0.00 0.00 67 1012.9
20260901200956 31 342 0.0 0.0 0.00 0.00 0.00 68 1012.5
20260901200451 30 341 0.0 0.0 0.00 0.00 0.00 67 1012.6
20260901195950 31 349 0.0 0.0 0.00 0.00 0.00 66 1012.6
20260901195449 31 330 0.0 0.0 0.00 0.00 0.00 69 1012.6
20260901194943 31 4 0.0 0.0 0.00 0.00 0.00 65 1012.6
20260901194438 31 318 0.0 0.0 0.00 0.00 0.00 64 1012.6
20260901193935 32 336 0.0 0.0 0.00 0.00 0.00 63 1012.5
20260901193434 32 334 0.0 0.0 0.00 0.00 0.00 62 1012.7
20260901192933 32 340 0.0 0.0 0.00 0.00 0.00 63 1012.7
20260901192429 31 358 0.0 0.0 0.00 0.00 0.00 64 1012.9
20260901191925 32 353 0.0 0.0 0.00 0.00 0.00 64 1012.8
20260901191422 31 336 0.0 0.0 0.00 0.00 0.00 63 1013.0
20260901190916 31 0 0.0 0.0 0.00 0.00 0.00 65 1013.0
20260901190411 32 333 0.0 0.0 0.00 0.00 0.00 61 1013.3
20260901185909 32 351 0.0 0.0 0.00 0.00 0.00 65 1013.1
20260901185409 33 339 0.0 0.0 0.00 0.00 0.00 65 1013.2
20260901184903 32 331 0.0 0.0 0.00 0.00 0.00 59 1013.1
20260901184359 32 49 0.0 0.0 0.00 0.00 0.00 60 1013.3
20260901183854 32 342 0.0 0.0 0.00 0.00 0.00 62 1013.4
20260901183353 32 341 0.0 0.0 0.00 0.00 0.00 63 1013.5
20260901182849 31 341 0.0 0.0 0.00 0.00 0.00 63 1013.9
20260901182350 31 336 0.0 0.0 0.00 0.00 0.00 63 1013.6
20260901181844 32 326 0.0 0.0 0.00 0.00 0.00 61 1013.9
20260901181339 31 352 0.0 0.0 0.00 0.00 0.00 63 1013.5
20260901180838 32 205 0.0 0.0 0.00 0.00 0.00 61 1013.9
20260901180337 32 164 0.0 0.0 0.00 0.00 0.00 64 1013.7
20260901175836 32 358 0.0 0.0 0.00 0.00 0.00 64 1013.7
20260901175331 31 343 0.0 0.0 0.00 0.00 0.00 64 1014.0
20260901174826 31 294 0.0 0.0 0.00 0.00 0.00 66 1014.0
20260901174322 30 333 0.0 0.0 0.00 0.00 0.00 74 1013.5
20260901173817 30 357 0.0 0.0 0.00 0.00 0.00 72 1013.7
20260901173312 30 355 0.0 0.0 0.00 0.00 0.00 70 1013.5
20260901172809 30 340 0.0 0.0 0.00 0.00 0.00 73 1013.6
20260901172308 30 304 0.0 0.0 0.00 0.00 0.00 72 1013.4
20260901171806 30 351 0.0 0.0 0.00 0.00 0.00 72 1013.3
20260901171305 30 351 0.0 0.0 0.00 0.00 0.00 70 1013.3
20260901170805 31 355 0.0 0.0 0.00 0.00 0.00 67 1013.5
20260901170259 31 2 0.0 0.0 0.00 0.00 0.00 67 1013.6
20260901165757 31 309 0.0 0.0 0.00 0.00 0.00 68 1013.5
20260901165252 31 330 0.0 0.0 0.00 0.00 0.00 72 1013.4
20260901164749 31 343 0.0 0.0 0.00 0.00 0.00 67 1013.9
20260901164244 31 347 0.0 0.0 0.00 0.00 0.00 73 1014.0
20260901163739 31 348 0.0 0.0 0.00 0.00 0.00 70 1014.0
20260901163239 31 58 0.0 0.0 0.00 0.00 0.00 66 1013.9
20260901162734 31 354 0.0 0.0 0.00 0.00 0.00 68 1013.9
20260901162233 31 73 0.0 0.0 0.00 0.00 0.00 71 1013.6
20260901161732 31 307 0.0 0.0 0.00 0.00 0.00 68 1013.7
20260901161227 31 8 0.0 0.0 0.00 0.00 0.00 70 1013.7
20260901160723 31 323 0.0 0.0 0.00 0.00 0.00 73 1013.7
20260901160219 30 344 0.0 0.0 0.00 0.00 0.00 73 1014.1
20260901155717 29 352 0.0 0.0 0.00 0.00 0.00 81 1014.3
20260901155212 29 161 0.0 0.0 0.00 0.00 0.00 75 1014.2
20260901154708 29 331 0.0 0.0 0.00 0.00 0.00 77 1014.2
20260901154202 30 347 0.0 0.0 0.00 0.00 0.00 74 1014.2
20260901153657 30 329 0.0 0.0 0.00 0.00 0.00 76 1014.2
20260901153151 30 307 0.0 0.0 0.00 0.00 0.00 70 1014.1
20260901152646 31 242 0.0 0.0 0.00 0.00 0.00 71 1014.1
20260901152144 31 349 0.0 0.0 0.00 0.00 0.00 72 1014.1
20260901151641 30 26 0.0 0.0 0.00 0.00 0.00 74 1014.2
20260901151140 30 4 0.0 0.0 0.00 0.00 0.00 73 1014.3
20260901150639 30 70 0.0 0.0 0.00 0.00 0.00 72 1014.0
20260901150138 29 357 0.0 0.0 0.00 0.00 0.00 81 1014.2
20260901145636 28 2 0.0 0.0 0.00 0.00 0.00 82 1014.3
20260901145135 28 344 0.0 0.0 0.00 0.00 0.00 83 1014.3
20260901144631 27 352 0.0 0.0 0.00 0.00 0.00 85 1014.1
20260901144126 28 338 0.0 0.0 0.00 0.00 0.00 82 1014.3
20260901143621 28 7 0.0 0.0 0.00 0.00 0.00 82 1014.2
20260901143118 28 355 0.0 0.0 0.00 0.00 0.00 85 1014.4
20260901142613 28 333 0.0 0.0 0.00 0.00 0.00 83 1014.2
20260901142107 28 2 0.0 0.0 0.00 0.00 0.00 82 1014.2
20260901141602 29 2 0.0 0.0 0.00 0.00 0.00 79 1014.3
20260901141057 28 136 0.0 0.0 0.00 0.00 0.00 80 1014.3
20260901140555 28 206 0.0 0.0 0.00 0.00 0.00 80 1014.4
20260901140049 28 14 0.0 0.0 0.00 0.00 0.00 82 1014.5
20260901135548 27 19 0.0 0.0 0.00 0.00 0.00 83 1014.4
20260901135045 27 351 0.0 0.0 0.00 0.00 0.00 84 1014.6
20260901134541 26 328 0.0 0.0 0.00 0.00 0.00 86 1014.5
20260901134040 27 64 0.0 0.0 0.00 0.00 0.00 84 1014.7
20260901133534 27 347 0.0 0.0 0.00 0.00 0.00 87 1014.7
20260901133032 26 48 0.0 0.0 0.00 0.00 0.00 85 1014.6
20260901132527 25 84 0.0 0.0 0.00 0.00 0.00 89 1014.7
20260901132026 25 109 0.0 0.0 0.00 0.00 0.00 91 1014.4
20260901131521 24 1 0.0 0.0 0.00 0.00 0.00 94 1014.7
20260901131016 23 355 0.0 0.0 0.00 0.00 0.00 96 1014.7
20260901130511 22 354 0.0 0.0 0.00 0.00 0.00 99 1014.6
20260901130010 22 354 0.0 0.0 0.00 0.00 0.00 99 1014.7
20260901125508 22 354 0.0 0.0 0.00 0.00 0.00 99 1014.8
20260901125003 21 354 0.0 0.0 0.00 0.00 0.00 99 1014.7
20260901124458 21 354 0.0 0.0 0.00 0.00 0.00 99 1014.9
20260901123953 21 354 0.0 0.0 0.00 0.00 0.00 99 1014.8
20260901123448 21 354 0.0 0.0 0.00 0.00 0.00 99 1014.9
20260901122946 21 354 0.0 0.0 0.00 0.00 0.00 99 1014.9
20260901122445 20 354 0.0 0.0 0.00 0.00 0.00 99 1015.0
20260901121945 20 354 0.0 0.0 0.00 0.00 0.00 99 1015.2
20260901121440 20 354 0.0 0.0 0.00 0.00 0.00 99 1014.9
20260901120935 20 354 0.0 0.0 0.00 0.00 0.00 99 1015.2
20260901120429 20 354 0.0 0.0 0.00 0.00 0.00 99 1014.9
20260901115925 20 354 0.0 0.0 0.00 0.00 0.00 99 1015.0
20260901115424 19 353 0.0 0.0 0.00 0.00 0.00 99 1014.8
20260901114922 19 353 0.0 0.0 0.00 0.00 0.00 99 1014.8
20260901114418 19 353 0.0 0.0 0.00 0.00 0.00 99 1015.0
20260901113916 19 354 0.0 0.0 0.00 0.00 0.00 99 1014.8
20260901113415 19 353 0.0 0.0 0.00 0.00 0.00 99 1014.6
20260901112910 19 353 0.0 0.0 0.00 0.00 0.00 99 1014.6
20260901112405 18 353 0.0 0.0 0.00 0.00 0.00 99 1014.6
20260901111900 18 353 0.0 0.0 0.00 0.00 0.00 99 1014.6
20260901111358 18 352 0.0 0.0 0.00 0.00 0.00 99 1014.7
20260901110857 18 352 0.0 0.0 0.00 0.00 0.00 99 1014.6
20260901110353 18 352 0.0 0.0 0.00 0.00 0.00 99 1014.6
20260901105849 18 352 0.0 0.0 0.00 0.00 0.00 99 1014.3
20260901105344 18 352 0.0 0.0 0.00 0.00 0.00 99 1014.5
20260901104840 18 352 0.0 0.0 0.00 0.00 0.00 99 1014.4
20260901104335 18 352 0.0 0.0 0.00 0.00 0.00 99 1014.2
20260901103830 18 352 0.0 0.0 0.00 0.00 0.00 99 1014.2
20260901103324 18 352 0.0 0.0 0.00 0.00 0.00 99 1014.1
20260901102820 18 352 0.0 0.0 0.00 0.00 0.00 99 1014.1
20260901102320 18 352 0.0 0.0 0.00 0.00 0.00 99 1014.1
20260901101815 19 352 0.0 0.0 0.00 0.00 0.00 99 1014.0
20260901101310 19 352 0.0 0.0 0.00 0.00 0.00 99 1014.1
20260901100809 19 352 0.0 0.0 0.00 0.00 0.00 99 1014.1
20260901100304 19 352 0.0 0.0 0.00 0.00 0.00 99 1014.4
20260901095803 19 352 0.0 0.0 0.00 0.00 0.00 99 1014.2
20260901095300 19 352 0.0 0.0 0.00 0.00 0.00 99 1014.5
20260901094754 19 352 0.0 0.0 0.00 0.00 0.00 99 1014.2
20260901094249 19 352 0.0 0.0 0.00 0.00 0.00 99 1014.0
20260901093745 19 352 0.0 0.0 0.00 0.00 0.00 99 1014.1
20260901093243 20 352 0.0 0.0 0.00 0.00 0.00 99 1014.1
20260901092740 20 352 0.0 0.0 0.00 0.00 0.00 99 1013.9
20260901092235 20 352 0.0 0.0 0.00 0.00 0.00 99 1014.1
20260901091731 20 352 0.0 0.0 0.00 0.00 0.00 99 1014.2
20260901091226 20 353 0.0 0.0 0.00 0.00 0.00 99 1014.0
20260901090721 20 352 0.0 0.0 0.00 0.00 0.00 99 1014.2
20260901090216 20 352 0.0 0.0 0.00 0.00 0.00 99 1013.9
20260901085712 20 352 0.0 0.0 0.00 0.00 0.00 99 1014.1
20260901085207 20 352 0.0 0.0 0.00 0.00 0.00 99 1014.1
20260901084704 20 352 0.0 0.0 0.00 0.00 0.00 99 1014.1
20260901084159 20 353 0.0 0.0 0.00 0.00 0.00 99 1014.0
20260901083653 20 352 0.0 0.0 0.00 0.00 0.00 99 1013.9
20260901083152 20 353 0.0 0.0 0.00 0.00 0.00 99 1014.0
20260901082646 19 352 0.0 0.0 0.00 0.00 0.00 99 1014.1
20260901082142 19 353 0.0 0.0 0.00 0.00 0.00 99 1014.3
20260901081637 19 352 0.0 0.0 0.00 0.00 0.00 99 1014.0
20260901081131 19 352 0.0 0.0 0.00 0.00 0.00 99 1014.2
20260901080631 19 353 0.0 0.0 0.00 0.00 0.00 99 1014.2
20260901080130 19 353 0.0 0.0 0.00 0.00 0.00 99 1014.2
20260901075626 19 353 0.0 0.0 0.00 0.00 0.00 99 1014.3
20260901075125 19 352 0.0 0.0 0.00 0.00 0.00 99 1014.2
20260901074625 19 353 0.0 0.0 0.00 0.00 0.00 99 1014.4
20260901074120 19 353 0.0 0.0 0.00 0.00 0.00 99 1014.2
20260901073616 19 353 0.0 0.0 0.00 0.00 0.00 99 1014.2
20260901073111 19 353 0.0 0.0 0.00 0.00 0.00 99 1014.2
20260901072607 19 353 0.0 0.0 0.00 0.00 0.00 99 1014.2
20260901072101 19 352 0.0 0.0 0.00 0.00 0.00 99 1014.4
20260901071556 19 353 0.0 0.0 0.00 0.00 0.00 99 1014.3
20260901071055 19 353 0.0 0.0 0.00 0.00 0.00 99 1014.2
20260901070549 18 353 0.0 0.0 0.00 0.00 0.00 99 1014.2
20260901070045 18 353 0.0 0.0 0.00 0.00 0.00 99 1014.3
20260901065539 18 352 0.0 0.0 0.00 0.00 0.00 99 1014.6
20260901065034 18 353 0.0 0.0 0.00 0.00 0.00 99 1014.4
20260901064531 18 353 0.0 0.0 0.00 0.00 0.00 99 1014.4
20260901064027 18 353 0.0 0.0 0.00 0.00 0.00 99 1014.6
20260901063524 18 353 0.0 0.0 0.00 0.00 0.00 99 1014.6
20260901063020 18 353 0.0 0.0 0.00 0.00 0.00 99 1014.5
20260901062515 19 353 0.0 0.0 0.00 0.00 0.00 99 1014.6
20260901062011 19 353 0.0 0.0 0.00 0.00 0.00 99 1014.5
20260901061507 19 352 0.0 0.0 0.00 0.00 0.00 99 1014.7